Data supplied by UK-AIR on 21/4/2020
All Data GMT hour ending 
Status: R =Ratified P=Provisional,P*=As supplied
,,Warrington,,,,,,,,,,,,,,,,,,,,,,,
Date,time,"PM<sub>10</sub> particulate matter (Hourly measured)",status,unit,"Nitric oxide",status,unit,"Nitrogen dioxide",status,unit,"Nitrogen oxides as nitrogen dioxide",status,unit,"PM<sub>2.5</sub> particulate matter (Hourly measured)",status,unit
 
01-01-2019,01:00,27.054,R,ugm-3 (Ref.eq),0.86145,R,ugm-3,4.64994,R,ugm-3,5.97081,R,ugm-3,11.000,R,ugm-3 (BAM)
01-01-2019,02:00,22.223,R,ugm-3 (Ref.eq),1.72290,R,ugm-3,4.85353,R,ugm-3,7.49527,R,ugm-3,6.000,R,ugm-3 (BAM)
01-01-2019,03:00,21.256,R,ugm-3 (Ref.eq),1.13834,R,ugm-3,5.01936,R,ugm-3,6.76480,R,ugm-3,6.000,R,ugm-3 (BAM)
01-01-2019,04:00,20.290,R,ugm-3 (Ref.eq),1.01528,R,ugm-3,4.49347,R,ugm-3,6.05021,R,ugm-3,7.000,R,ugm-3 (BAM)
01-01-2019,05:00,21.256,R,ugm-3 (Ref.eq),0.83068,R,ugm-3,4.10956,R,ugm-3,5.38325,R,ugm-3,5.000,R,ugm-3 (BAM)
01-01-2019,06:00,24.155,R,ugm-3 (Ref.eq),0.86145,R,ugm-3,4.30058,R,ugm-3,5.62145,R,ugm-3,8.000,R,ugm-3 (BAM)
01-01-2019,07:00,21.256,R,ugm-3 (Ref.eq),0.95375,R,ugm-3,6.30283,R,ugm-3,7.76522,R,ugm-3,7.000,R,ugm-3 (BAM)
01-01-2019,08:00,14.493,R,ugm-3 (Ref.eq),1.29217,R,ugm-3,5.87920,R,ugm-3,7.86050,R,ugm-3,6.000,R,ugm-3 (BAM)
01-01-2019,09:00,11.594,R,ugm-3 (Ref.eq),1.04604,R,ugm-3,5.16088,R,ugm-3,6.76480,R,ugm-3,3.000,R,ugm-3 (BAM)
01-01-2019,10:00,10.628,R,ugm-3 (Ref.eq),0.98451,R,ugm-3,9.82862,R,ugm-3,11.33818,R,ugm-3,-1.000,R,ugm-3 (BAM)
01-01-2019,11:00,14.493,R,ugm-3 (Ref.eq),1.59983,R,ugm-3,9.50445,R,ugm-3,11.95749,R,ugm-3,4.000,R,ugm-3 (BAM)
01-01-2019,12:00,23.189,R,ugm-3 (Ref.eq),0.95375,R,ugm-3,4.44490,R,ugm-3,5.90729,R,ugm-3,7.000,R,ugm-3 (BAM)
01-01-2019,13:00,23.189,R,ugm-3 (Ref.eq),1.26141,R,ugm-3,5.02123,R,ugm-3,6.95536,R,ugm-3,6.000,R,ugm-3 (BAM)
01-01-2019,14:00,19.324,R,ugm-3 (Ref.eq),1.47677,R,ugm-3,6.02491,R,ugm-3,8.28926,R,ugm-3,10.000,R,ugm-3 (BAM)
01-01-2019,15:00,19.324,R,ugm-3 (Ref.eq),1.29217,R,ugm-3,7.73714,R,ugm-3,9.71844,R,ugm-3,6.000,R,ugm-3 (BAM)
01-01-2019,16:00,17.392,R,ugm-3 (Ref.eq),1.19988,R,ugm-3,12.40440,R,ugm-3,14.24419,R,ugm-3,3.000,R,ugm-3 (BAM)
01-01-2019,17:00,24.155,R,ugm-3 (Ref.eq),2.15362,R,ugm-3,27.28233,R,ugm-3,30.58451,R,ugm-3,7.000,R,ugm-3 (BAM)
01-01-2019,18:00,20.290,R,ugm-3 (Ref.eq),1.38447,R,ugm-3,24.84108,R,ugm-3,26.96391,R,ugm-3,9.000,R,ugm-3 (BAM)
01-01-2019,19:00,19.324,R,ugm-3 (Ref.eq),1.29217,R,ugm-3,22.83883,R,ugm-3,24.82013,R,ugm-3,8.000,R,ugm-3 (BAM)
01-01-2019,20:00,17.392,R,ugm-3 (Ref.eq),2.61511,R,ugm-3,26.28889,R,ugm-3,30.29867,R,ugm-3,18.000,R,ugm-3 (BAM)
01-01-2019,21:00,24.155,R,ugm-3 (Ref.eq),6.49163,R,ugm-3,31.68315,R,ugm-3,41.63685,R,ugm-3,13.000,R,ugm-3 (BAM)
01-01-2019,22:00,21.256,R,ugm-3 (Ref.eq),4.86103,R,ugm-3,32.46835,R,ugm-3,39.92183,R,ugm-3,15.000,R,ugm-3 (BAM)
01-01-2019,23:00,19.324,R,ugm-3 (Ref.eq),6.70699,R,ugm-3,33.25851,R,ugm-3,43.54243,R,ugm-3,16.000,R,ugm-3 (BAM)
01-01-2019,24:00,21.256,R,ugm-3 (Ref.eq),8.24530,R,ugm-3,33.28179,R,ugm-3,45.92440,R,ugm-3,11.000,R,ugm-3 (BAM)
02-01-2019,01:00,18.358,R,ugm-3 (Ref.eq),5.16769,R,ugm-3,30.13123,R,ugm-3,38.05491,R,ugm-3,11.000,R,ugm-3 (BAM)
02-01-2019,02:00,17.392,R,ugm-3 (Ref.eq),2.21472,R,ugm-3,22.52468,R,ugm-3,25.92054,R,ugm-3,9.000,R,ugm-3 (BAM)
02-01-2019,03:00,15.459,R,ugm-3 (Ref.eq),4.30641,R,ugm-3,25.46407,R,ugm-3,32.06714,R,ugm-3,14.000,R,ugm-3 (BAM)
02-01-2019,04:00,20.290,R,ugm-3 (Ref.eq),7.62849,R,ugm-3,28.66104,R,ugm-3,40.35790,R,ugm-3,13.000,R,ugm-3 (BAM)
02-01-2019,05:00,20.290,R,ugm-3 (Ref.eq),10.95058,R,ugm-3,30.90504,R,ugm-3,47.69570,R,ugm-3,12.000,R,ugm-3 (BAM)
02-01-2019,06:00,23.189,R,ugm-3 (Ref.eq),9.72018,R,ugm-3,32.17221,R,ugm-3,47.07627,R,ugm-3,12.000,R,ugm-3 (BAM)
02-01-2019,07:00,13.527,R,ugm-3 (Ref.eq),10.30462,R,ugm-3,32.37199,R,ugm-3,48.17218,R,ugm-3,13.000,R,ugm-3 (BAM)
02-01-2019,08:00,20.290,R,ugm-3 (Ref.eq),15.28775,R,ugm-3,45.55349,R,ugm-3,68.99438,R,ugm-3,11.000,R,ugm-3 (BAM)
02-01-2019,09:00,28.020,R,ugm-3 (Ref.eq),68.47188,R,ugm-3,102.08967,R,ugm-3,207.07842,R,ugm-3,17.000,R,ugm-3 (BAM)
02-01-2019,10:00,31.885,R,ugm-3 (Ref.eq),100.67766,R,ugm-3,124.32319,R,ugm-3,278.69344,R,ugm-3,21.000,R,ugm-3 (BAM)
02-01-2019,11:00,36.716,R,ugm-3 (Ref.eq),67.17996,R,ugm-3,100.83052,R,ugm-3,203.83836,R,ugm-3,24.000,R,ugm-3 (BAM)
02-01-2019,12:00,40.580,R,ugm-3 (Ref.eq),57.42902,R,ugm-3,81.80869,R,ugm-3,169.86530,R,ugm-3,25.000,R,ugm-3 (BAM)
02-01-2019,13:00,52.175,R,ugm-3 (Ref.eq),92.31092,R,ugm-3,90.93339,R,ugm-3,232.47483,R,ugm-3,26.000,R,ugm-3 (BAM)
02-01-2019,14:00,46.378,R,ugm-3 (Ref.eq),74.93149,R,ugm-3,93.18568,R,ugm-3,208.07903,R,ugm-3,28.000,R,ugm-3 (BAM)
02-01-2019,15:00,42.513,R,ugm-3 (Ref.eq),23.71600,R,ugm-3,86.99677,R,ugm-3,123.36080,R,ugm-3,19.000,R,ugm-3 (BAM)
02-01-2019,16:00,43.479,R,ugm-3 (Ref.eq),20.88608,R,ugm-3,83.71224,R,ugm-3,115.73711,R,ugm-3,27.000,R,ugm-3 (BAM)
02-01-2019,17:00,38.648,R,ugm-3 (Ref.eq),26.88429,R,ugm-3,86.37948,R,ugm-3,127.60148,R,ugm-3,17.000,R,ugm-3 (BAM)
02-01-2019,18:00,24.155,R,ugm-3 (Ref.eq),16.91803,R,ugm-3,81.12455,R,ugm-3,107.06517,R,ugm-3,14.000,R,ugm-3 (BAM)
02-01-2019,19:00,23.189,R,ugm-3 (Ref.eq),5.90593,R,ugm-3,63.79824,R,ugm-3,72.85387,R,ugm-3,10.000,R,ugm-3 (BAM)
02-01-2019,20:00,15.459,R,ugm-3 (Ref.eq),1.63028,R,ugm-3,40.09762,R,ugm-3,42.59736,R,ugm-3,7.000,R,ugm-3 (BAM)
02-01-2019,21:00,24.155,R,ugm-3 (Ref.eq),3.10677,R,ugm-3,43.50383,R,ugm-3,48.26747,R,ugm-3,8.000,R,ugm-3 (BAM)
02-01-2019,22:00,21.256,R,ugm-3 (Ref.eq),1.44572,R,ugm-3,31.56573,R,ugm-3,33.78247,R,ugm-3,8.000,R,ugm-3 (BAM)
02-01-2019,23:00,18.358,R,ugm-3 (Ref.eq),1.19964,R,ugm-3,25.51055,R,ugm-3,27.34998,R,ugm-3,11.000,R,ugm-3 (BAM)
02-01-2019,24:00,16.425,R,ugm-3 (Ref.eq),1.29192,R,ugm-3,17.50713,R,ugm-3,19.48805,R,ugm-3,9.000,R,ugm-3 (BAM)
03-01-2019,01:00,18.358,R,ugm-3 (Ref.eq),1.51720,R,ugm-3,15.84674,R,ugm-3,18.17308,R,ugm-3,10.000,R,ugm-3 (BAM)
03-01-2019,02:00,16.425,R,ugm-3 (Ref.eq),0.90212,R,ugm-3,11.26168,R,ugm-3,12.64491,R,ugm-3,6.000,R,ugm-3 (BAM)
03-01-2019,03:00,18.358,R,ugm-3 (Ref.eq),0.95338,R,ugm-3,9.40390,R,ugm-3,10.86572,R,ugm-3,11.000,R,ugm-3 (BAM)
03-01-2019,04:00,16.425,R,ugm-3 (Ref.eq),0.83036,R,ugm-3,8.78236,R,ugm-3,10.05556,R,ugm-3,8.000,R,ugm-3 (BAM)
03-01-2019,05:00,13.527,R,ugm-3 (Ref.eq),0.98413,R,ugm-3,7.64111,R,ugm-3,9.15008,R,ugm-3,6.000,R,ugm-3 (BAM)
03-01-2019,06:00,17.392,R,ugm-3 (Ref.eq),2.36806,R,ugm-3,16.57545,R,ugm-3,20.20644,R,ugm-3,8.000,R,ugm-3 (BAM)
03-01-2019,07:00,29.952,R,ugm-3 (Ref.eq),3.62898,R,ugm-3,30.55941,R,ugm-3,36.12377,R,ugm-3,13.000,R,ugm-3 (BAM)
03-01-2019,08:00,33.817,R,ugm-3 (Ref.eq),6.64288,R,ugm-3,31.46633,R,ugm-3,41.65194,R,ugm-3,16.000,R,ugm-3 (BAM)
03-01-2019,09:00,33.817,R,ugm-3 (Ref.eq),6.24308,R,ugm-3,33.17546,R,ugm-3,42.74805,R,ugm-3,18.000,R,ugm-3 (BAM)
03-01-2019,10:00,32.851,R,ugm-3 (Ref.eq),3.47521,R,ugm-3,22.07401,R,ugm-3,27.40260,R,ugm-3,18.000,R,ugm-3 (BAM)
03-01-2019,11:00,35.749,R,ugm-3 (Ref.eq),4.64387,R,ugm-3,20.56804,R,ugm-3,27.68853,R,ugm-3,23.000,R,ugm-3 (BAM)
03-01-2019,12:00,34.783,R,ugm-3 (Ref.eq),5.35121,R,ugm-3,25.91711,R,ugm-3,34.12219,R,ugm-3,21.000,R,ugm-3 (BAM)
03-01-2019,13:00,37.682,R,ugm-3 (Ref.eq),4.18256,R,ugm-3,20.84646,R,ugm-3,27.25962,R,ugm-3,18.000,R,ugm-3 (BAM)
03-01-2019,14:00,40.580,R,ugm-3 (Ref.eq),4.92065,R,ugm-3,22.43116,R,ugm-3,29.97606,R,ugm-3,21.000,R,ugm-3 (BAM)
03-01-2019,15:00,40.580,R,ugm-3 (Ref.eq),4.98216,R,ugm-3,28.57987,R,ugm-3,36.21908,R,ugm-3,21.000,R,ugm-3 (BAM)
03-01-2019,16:00,36.716,R,ugm-3 (Ref.eq),4.02878,R,ugm-3,32.75813,R,ugm-3,38.93551,R,ugm-3,21.000,R,ugm-3 (BAM)
03-01-2019,17:00,41.547,R,ugm-3 (Ref.eq),4.30557,R,ugm-3,38.43378,R,ugm-3,45.03557,R,ugm-3,24.000,R,ugm-3 (BAM)
03-01-2019,18:00,42.513,R,ugm-3 (Ref.eq),6.88891,R,ugm-3,43.52748,R,ugm-3,54.09034,R,ugm-3,26.000,R,ugm-3 (BAM)
03-01-2019,19:00,48.310,R,ugm-3 (Ref.eq),4.88990,R,ugm-3,41.77927,R,ugm-3,49.27701,R,ugm-3,31.000,R,ugm-3 (BAM)
03-01-2019,20:00,40.580,R,ugm-3 (Ref.eq),2.09128,R,ugm-3,32.86953,R,ugm-3,36.07611,R,ugm-3,30.000,R,ugm-3 (BAM)
03-01-2019,21:00,41.547,R,ugm-3 (Ref.eq),2.61410,R,ugm-3,33.06867,R,ugm-3,37.07690,R,ugm-3,28.000,R,ugm-3 (BAM)
03-01-2019,22:00,41.547,R,ugm-3 (Ref.eq),1.47620,R,ugm-3,24.13833,R,ugm-3,26.40180,R,ugm-3,36.000,R,ugm-3 (BAM)
03-01-2019,23:00,46.378,R,ugm-3 (Ref.eq),1.96826,R,ugm-3,24.38464,R,ugm-3,27.40260,R,ugm-3,34.000,R,ugm-3 (BAM)
03-01-2019,24:00,47.344,R,ugm-3 (Ref.eq),1.72223,R,ugm-3,20.99700,R,ugm-3,23.63772,R,ugm-3,29.000,R,ugm-3 (BAM)
04-01-2019,01:00,35.749,R,ugm-3 (Ref.eq),1.68090,R,ugm-3,16.99722,R,ugm-3,19.57456,R,ugm-3,29.000,R,ugm-3 (BAM)
04-01-2019,02:00,39.614,R,ugm-3 (Ref.eq),1.39391,R,ugm-3,15.02221,R,ugm-3,17.15952,R,ugm-3,29.000,R,ugm-3 (BAM)
04-01-2019,03:00,33.817,R,ugm-3 (Ref.eq),1.29142,R,ugm-3,11.17548,R,ugm-3,13.15563,R,ugm-3,27.000,R,ugm-3 (BAM)
04-01-2019,04:00,43.479,R,ugm-3 (Ref.eq),1.26067,R,ugm-3,13.89188,R,ugm-3,15.82489,R,ugm-3,34.000,R,ugm-3 (BAM)
04-01-2019,05:00,50.242,R,ugm-3 (Ref.eq),2.02938,R,ugm-3,15.71614,R,ugm-3,18.82780,R,ugm-3,35.000,R,ugm-3 (BAM)
04-01-2019,06:00,47.344,R,ugm-3 (Ref.eq),4.70446,R,ugm-3,25.96166,R,ugm-3,33.17506,R,ugm-3,42.000,R,ugm-3 (BAM)
04-01-2019,07:00,55.073,R,ugm-3 (Ref.eq),7.16431,R,ugm-3,28.81542,R,ugm-3,39.80054,R,ugm-3,37.000,R,ugm-3 (BAM)
04-01-2019,08:00,49.276,R,ugm-3 (Ref.eq),6.39561,R,ugm-3,34.28396,R,ugm-3,44.09042,R,ugm-3,38.000,R,ugm-3 (BAM)
04-01-2019,09:00,53.141,R,ugm-3 (Ref.eq),16.01976,R,ugm-3,43.69344,R,ugm-3,68.25674,R,ugm-3,42.000,R,ugm-3 (BAM)
04-01-2019,10:00,50.242,R,ugm-3 (Ref.eq),18.66410,R,ugm-3,43.30908,R,ugm-3,71.92697,R,ugm-3,36.000,R,ugm-3 (BAM)
04-01-2019,11:00,55.073,R,ugm-3 (Ref.eq),24.50624,R,ugm-3,42.78802,R,ugm-3,80.36373,R,ugm-3,37.000,R,ugm-3 (BAM)
04-01-2019,12:00,49.276,R,ugm-3 (Ref.eq),20.57048,R,ugm-3,41.38697,R,ugm-3,72.92794,R,ugm-3,35.000,R,ugm-3 (BAM)
04-01-2019,13:00,53.141,R,ugm-3 (Ref.eq),21.92340,R,ugm-3,43.12575,R,ugm-3,76.74116,R,ugm-3,35.000,R,ugm-3 (BAM)
04-01-2019,14:00,53.141,R,ugm-3 (Ref.eq),23.86053,R,ugm-3,46.06603,R,ugm-3,82.65167,R,ugm-3,36.000,R,ugm-3 (BAM)
04-01-2019,15:00,53.141,R,ugm-3 (Ref.eq),20.26300,R,ugm-3,46.33898,R,ugm-3,77.40848,R,ugm-3,34.000,R,ugm-3 (BAM)
04-01-2019,16:00,54.107,R,ugm-3 (Ref.eq),24.50624,R,ugm-3,47.98354,R,ugm-3,85.55925,R,ugm-3,37.000,R,ugm-3 (BAM)
04-01-2019,17:00,50.242,R,ugm-3 (Ref.eq),26.10514,R,ugm-3,51.82375,R,ugm-3,91.85107,R,ugm-3,36.000,R,ugm-3 (BAM)
04-01-2019,18:00,50.242,R,ugm-3 (Ref.eq),17.80315,R,ugm-3,52.35096,R,ugm-3,79.64875,R,ugm-3,37.000,R,ugm-3 (BAM)
04-01-2019,19:00,47.344,R,ugm-3 (Ref.eq),25.58243,R,ugm-3,54.34119,R,ugm-3,93.56702,R,ugm-3,35.000,R,ugm-3 (BAM)
04-01-2019,20:00,63.769,R,ugm-3 (Ref.eq),27.02759,R,ugm-3,60.99105,R,ugm-3,102.43277,R,ugm-3,39.000,R,ugm-3 (BAM)
04-01-2019,21:00,49.276,R,ugm-3 (Ref.eq),22.29238,R,ugm-3,55.04831,R,ugm-3,89.22948,R,ugm-3,30.000,R,ugm-3 (BAM)
04-01-2019,22:00,52.175,R,ugm-3 (Ref.eq),30.56362,R,ugm-3,58.57213,R,ugm-3,105.43569,R,ugm-3,36.000,R,ugm-3 (BAM)
04-01-2019,23:00,57.006,R,ugm-3 (Ref.eq),34.25339,R,ugm-3,59.68303,R,ugm-3,112.20416,R,ugm-3,40.000,R,ugm-3 (BAM)
04-01-2019,24:00,59.904,R,ugm-3 (Ref.eq),37.29745,R,ugm-3,62.64198,R,ugm-3,119.83061,R,ugm-3,38.000,R,ugm-3 (BAM)
05-01-2019,01:00,49.276,R,ugm-3 (Ref.eq),34.06228,R,ugm-3,64.28704,R,ugm-3,116.51515,R,ugm-3,33.000,R,ugm-3 (BAM)
05-01-2019,02:00,20.290,R,ugm-3 (Ref.eq),1.84453,R,ugm-3,29.46292,R,ugm-3,32.29116,R,ugm-3,8.000,R,ugm-3 (BAM)
05-01-2019,03:00,22.223,R,ugm-3 (Ref.eq),1.13746,R,ugm-3,14.56041,R,ugm-3,16.30449,R,ugm-3,15.000,R,ugm-3 (BAM)
05-01-2019,04:00,17.392,R,ugm-3 (Ref.eq),1.78304,R,ugm-3,11.32986,R,ugm-3,14.06382,R,ugm-3,11.000,R,ugm-3 (BAM)
05-01-2019,05:00,10.628,R,ugm-3 (Ref.eq),1.07598,R,ugm-3,10.79310,R,ugm-3,12.44290,R,ugm-3,8.000,R,ugm-3 (BAM)
05-01-2019,06:00,15.459,R,ugm-3 (Ref.eq),1.29117,R,ugm-3,14.89681,R,ugm-3,16.87658,R,ugm-3,8.000,R,ugm-3 (BAM)
05-01-2019,07:00,13.527,R,ugm-3 (Ref.eq),1.22969,R,ugm-3,18.99570,R,ugm-3,20.88119,R,ugm-3,10.000,R,ugm-3 (BAM)
05-01-2019,08:00,19.324,R,ugm-3 (Ref.eq),1.72156,R,ugm-3,30.20767,R,ugm-3,32.84735,R,ugm-3,10.000,R,ugm-3 (BAM)
05-01-2019,09:00,23.189,R,ugm-3 (Ref.eq),2.55160,R,ugm-3,35.18025,R,ugm-3,39.09264,R,ugm-3,12.000,R,ugm-3 (BAM)
05-01-2019,10:00,24.155,R,ugm-3 (Ref.eq),6.05620,R,ugm-3,40.81928,R,ugm-3,50.10533,R,ugm-3,17.000,R,ugm-3 (BAM)
05-01-2019,11:00,28.020,R,ugm-3 (Ref.eq),5.56433,R,ugm-3,37.61654,R,ugm-3,46.14839,R,ugm-3,11.000,R,ugm-3 (BAM)
05-01-2019,12:00,28.986,R,ugm-3 (Ref.eq),4.79577,R,ugm-3,33.55084,R,ugm-3,40.90425,R,ugm-3,15.000,R,ugm-3 (BAM)
05-01-2019,13:00,28.986,R,ugm-3 (Ref.eq),4.94948,R,ugm-3,36.93837,R,ugm-3,44.52747,R,ugm-3,15.000,R,ugm-3 (BAM)
05-01-2019,14:00,27.054,R,ugm-3 (Ref.eq),4.58058,R,ugm-3,38.31448,R,ugm-3,45.33793,R,ugm-3,12.000,R,ugm-3 (BAM)
05-01-2019,15:00,25.121,R,ugm-3 (Ref.eq),4.51909,R,ugm-3,38.69479,R,ugm-3,45.62398,R,ugm-3,11.000,R,ugm-3 (BAM)
05-01-2019,16:00,22.223,R,ugm-3 (Ref.eq),6.24065,R,ugm-3,41.77598,R,ugm-3,51.34485,R,ugm-3,9.000,R,ugm-3 (BAM)
05-01-2019,17:00,16.425,R,ugm-3 (Ref.eq),1.19894,R,ugm-3,29.48344,R,ugm-3,31.32179,R,ugm-3,6.000,R,ugm-3 (BAM)
05-01-2019,18:00,17.392,R,ugm-3 (Ref.eq),1.07598,R,ugm-3,25.38133,R,ugm-3,27.03113,R,ugm-3,4.000,R,ugm-3 (BAM)
05-01-2019,19:00,22.223,R,ugm-3 (Ref.eq),1.47562,R,ugm-3,18.61860,R,ugm-3,20.88119,R,ugm-3,6.000,R,ugm-3 (BAM)
05-01-2019,20:00,21.256,R,ugm-3 (Ref.eq),1.04523,R,ugm-3,20.75642,R,ugm-3,22.35909,R,ugm-3,10.000,R,ugm-3 (BAM)
05-01-2019,21:00,28.020,R,ugm-3 (Ref.eq),2.45937,R,ugm-3,37.84838,R,ugm-3,41.61936,R,ugm-3,13.000,R,ugm-3 (BAM)
05-01-2019,22:00,22.223,R,ugm-3 (Ref.eq),1.87527,R,ugm-3,40.46025,R,ugm-3,43.33562,R,ugm-3,15.000,R,ugm-3 (BAM)
05-01-2019,23:00,21.256,R,ugm-3 (Ref.eq),1.41414,R,ugm-3,32.72902,R,ugm-3,34.89733,R,ugm-3,13.000,R,ugm-3 (BAM)
05-01-2019,24:00,24.155,R,ugm-3 (Ref.eq),1.32191,R,ugm-3,27.43560,R,ugm-3,29.46250,R,ugm-3,8.000,R,ugm-3 (BAM)
06-01-2019,01:00,20.290,R,ugm-3 (Ref.eq),2.95067,R,ugm-3,39.47084,R,ugm-3,43.99514,R,ugm-3,7.000,R,ugm-3 (BAM)
06-01-2019,02:00,19.324,R,ugm-3 (Ref.eq),1.27043,R,ugm-3,35.68950,R,ugm-3,37.63746,R,ugm-3,10.000,R,ugm-3 (BAM)
06-01-2019,03:00,20.290,R,ugm-3 (Ref.eq),1.19871,R,ugm-3,25.81791,R,ugm-3,27.65590,R,ugm-3,7.000,R,ugm-3 (BAM)
06-01-2019,04:00,17.392,R,ugm-3 (Ref.eq),1.22945,R,ugm-3,23.62506,R,ugm-3,25.51019,R,ugm-3,9.000,R,ugm-3 (BAM)
06-01-2019,05:00,28.020,R,ugm-3 (Ref.eq),1.19871,R,ugm-3,26.72388,R,ugm-3,28.56187,R,ugm-3,13.000,R,ugm-3 (BAM)
06-01-2019,06:00,27.054,R,ugm-3 (Ref.eq),2.64331,R,ugm-3,37.43083,R,ugm-3,41.48385,R,ugm-3,18.000,R,ugm-3 (BAM)
06-01-2019,07:00,20.290,R,ugm-3 (Ref.eq),1.50607,R,ugm-3,28.63672,R,ugm-3,30.94600,R,ugm-3,12.000,R,ugm-3 (BAM)
06-01-2019,08:00,22.223,R,ugm-3 (Ref.eq),4.76411,R,ugm-3,37.32605,R,ugm-3,44.63090,R,ugm-3,14.000,R,ugm-3 (BAM)
06-01-2019,09:00,28.986,R,ugm-3 (Ref.eq),1.62902,R,ugm-3,35.26682,R,ugm-3,37.76461,R,ugm-3,11.000,R,ugm-3 (BAM)
06-01-2019,10:00,26.087,R,ugm-3 (Ref.eq),6.85416,R,ugm-3,41.94128,R,ugm-3,52.45085,R,ugm-3,12.000,R,ugm-3 (BAM)
06-01-2019,11:00,28.020,R,ugm-3 (Ref.eq),3.99570,R,ugm-3,37.55060,R,ugm-3,43.67725,R,ugm-3,14.000,R,ugm-3 (BAM)
06-01-2019,12:00,30.918,R,ugm-3 (Ref.eq),3.68834,R,ugm-3,38.06956,R,ugm-3,43.72494,R,ugm-3,11.000,R,ugm-3 (BAM)
06-01-2019,13:00,30.918,R,ugm-3 (Ref.eq),3.35024,R,ugm-3,35.10714,R,ugm-3,40.24411,R,ugm-3,8.000,R,ugm-3 (BAM)
06-01-2019,14:00,31.885,R,ugm-3 (Ref.eq),3.16583,R,ugm-3,33.86407,R,ugm-3,38.71826,R,ugm-3,10.000,R,ugm-3 (BAM)
06-01-2019,15:00,33.817,R,ugm-3 (Ref.eq),5.47104,R,ugm-3,45.54020,R,ugm-3,53.92901,R,ugm-3,12.000,R,ugm-3 (BAM)
06-01-2019,16:00,36.716,R,ugm-3 (Ref.eq),8.91349,R,ugm-3,50.46593,R,ugm-3,64.13308,R,ugm-3,15.000,R,ugm-3 (BAM)
06-01-2019,17:00,34.783,R,ugm-3 (Ref.eq),7.00784,R,ugm-3,49.09644,R,ugm-3,59.84165,R,ugm-3,18.000,R,ugm-3 (BAM)
06-01-2019,18:00,42.513,R,ugm-3 (Ref.eq),9.62042,R,ugm-3,49.28662,R,ugm-3,64.03772,R,ugm-3,25.000,R,ugm-3 (BAM)
06-01-2019,19:00,39.614,R,ugm-3 (Ref.eq),6.27018,R,ugm-3,46.36522,R,ugm-3,55.97936,R,ugm-3,24.000,R,ugm-3 (BAM)
06-01-2019,20:00,38.648,R,ugm-3 (Ref.eq),5.68619,R,ugm-3,40.58510,R,ugm-3,49.30380,R,ugm-3,22.000,R,ugm-3 (BAM)
06-01-2019,21:00,37.682,R,ugm-3 (Ref.eq),13.30876,R,ugm-3,40.77029,R,ugm-3,61.17676,R,ugm-3,23.000,R,ugm-3 (BAM)
06-01-2019,22:00,36.716,R,ugm-3 (Ref.eq),13.21655,R,ugm-3,51.87867,R,ugm-3,72.14376,R,ugm-3,24.000,R,ugm-3 (BAM)
06-01-2019,23:00,28.986,R,ugm-3 (Ref.eq),4.54895,R,ugm-3,39.46788,R,ugm-3,46.44284,R,ugm-3,12.000,R,ugm-3 (BAM)
06-01-2019,24:00,25.121,R,ugm-3 (Ref.eq),1.32166,R,ugm-3,26.24927,R,ugm-3,28.27578,R,ugm-3,12.000,R,ugm-3 (BAM)
07-01-2019,01:00,22.223,R,ugm-3 (Ref.eq),1.35213,R,ugm-3,24.82462,R,ugm-3,26.89785,R,ugm-3,11.000,R,ugm-3 (BAM)
07-01-2019,02:00,26.087,R,ugm-3 (Ref.eq),1.59797,R,ugm-3,20.69596,R,ugm-3,23.14614,R,ugm-3,10.000,R,ugm-3 (BAM)
07-01-2019,03:00,23.189,R,ugm-3 (Ref.eq),1.10629,R,ugm-3,17.42790,R,ugm-3,19.12418,R,ugm-3,13.000,R,ugm-3 (BAM)
07-01-2019,04:00,21.256,R,ugm-3 (Ref.eq),1.62870,R,ugm-3,21.82522,R,ugm-3,24.32253,R,ugm-3,10.000,R,ugm-3 (BAM)
07-01-2019,05:00,19.324,R,ugm-3 (Ref.eq),1.25994,R,ugm-3,22.39065,R,ugm-3,24.32253,R,ugm-3,9.000,R,ugm-3 (BAM)
07-01-2019,06:00,19.324,R,ugm-3 (Ref.eq),2.39695,R,ugm-3,30.32857,R,ugm-3,34.00384,R,ugm-3,7.000,R,ugm-3 (BAM)
07-01-2019,07:00,22.223,R,ugm-3 (Ref.eq),1.44432,R,ugm-3,31.69387,R,ugm-3,33.90846,R,ugm-3,6.000,R,ugm-3 (BAM)
07-01-2019,08:00,23.189,R,ugm-3 (Ref.eq),4.14858,R,ugm-3,40.99633,R,ugm-3,47.35739,R,ugm-3,11.000,R,ugm-3 (BAM)
07-01-2019,09:00,16.425,R,ugm-3 (Ref.eq),3.56470,R,ugm-3,38.79166,R,ugm-3,44.25746,R,ugm-3,10.000,R,ugm-3 (BAM)
07-01-2019,10:00,8.696,R,ugm-3 (Ref.eq),4.51734,R,ugm-3,40.76474,R,ugm-3,47.69123,R,ugm-3,5.000,R,ugm-3 (BAM)
07-01-2019,11:00,9.662,R,ugm-3 (Ref.eq),3.28813,R,ugm-3,31.10822,R,ugm-3,36.14995,R,ugm-3,5.000,R,ugm-3 (BAM)
07-01-2019,12:00,6.763,R,ugm-3 (Ref.eq),2.12038,R,ugm-3,21.83438,R,ugm-3,25.08558,R,ugm-3,4.000,R,ugm-3 (BAM)
07-01-2019,13:00,9.662,R,ugm-3 (Ref.eq),2.64280,R,ugm-3,21.08105,R,ugm-3,25.13328,R,ugm-3,4.000,R,ugm-3 (BAM)
07-01-2019,14:00,18.358,R,ugm-3 (Ref.eq),1.99746,R,ugm-3,19.92444,R,ugm-3,22.98717,R,ugm-3,7.000,R,ugm-3 (BAM)
07-01-2019,15:00,16.425,R,ugm-3 (Ref.eq),1.65943,R,ugm-3,13.90905,R,ugm-3,16.45347,R,ugm-3,6.000,R,ugm-3 (BAM)
07-01-2019,16:00,23.189,R,ugm-3 (Ref.eq),1.04483,R,ugm-3,15.42372,R,ugm-3,17.02577,R,ugm-3,8.000,R,ugm-3 (BAM)
07-01-2019,17:00,16.425,R,ugm-3 (Ref.eq),1.13702,R,ugm-3,15.85466,R,ugm-3,17.59806,R,ugm-3,6.000,R,ugm-3 (BAM)
07-01-2019,18:00,22.223,R,ugm-3 (Ref.eq),0.86045,R,ugm-3,11.70037,R,ugm-3,13.01971,R,ugm-3,8.000,R,ugm-3 (BAM)
07-01-2019,19:00,23.189,R,ugm-3 (Ref.eq),0.92191,R,ugm-3,11.36768,R,ugm-3,12.78125,R,ugm-3,6.000,R,ugm-3 (BAM)
07-01-2019,20:00,26.087,R,ugm-3 (Ref.eq),1.47505,R,ugm-3,11.47336,R,ugm-3,13.73507,R,ugm-3,5.000,R,ugm-3 (BAM)
07-01-2019,21:00,22.223,R,ugm-3 (Ref.eq),1.01410,R,ugm-3,9.46175,R,ugm-3,11.01667,R,ugm-3,6.000,R,ugm-3 (BAM)
07-01-2019,22:00,22.223,R,ugm-3 (Ref.eq),1.19848,R,ugm-3,8.89289,R,ugm-3,10.73053,R,ugm-3,7.000,R,ugm-3 (BAM)
07-01-2019,23:00,21.256,R,ugm-3 (Ref.eq),0.82972,R,ugm-3,8.17065,R,ugm-3,9.44286,R,ugm-3,6.000,R,ugm-3 (BAM)
07-01-2019,24:00,23.189,R,ugm-3 (Ref.eq),0.58387,R,ugm-3,7.83223,R,ugm-3,8.72750,R,ugm-3,4.000,R,ugm-3 (BAM)
08-01-2019,01:00,23.189,R,ugm-3 (Ref.eq),0.73738,R,ugm-3,7.58254,R,ugm-3,8.71317,R,ugm-3,4.000,R,ugm-3 (BAM)
08-01-2019,02:00,26.087,R,ugm-3 (Ref.eq),1.18800,R,ugm-3,6.57360,R,ugm-3,8.39518,R,ugm-3,6.000,R,ugm-3 (BAM)
08-01-2019,03:00,21.256,R,ugm-3 (Ref.eq),1.32114,R,ugm-3,5.32006,R,ugm-3,7.34578,R,ugm-3,7.000,R,ugm-3 (BAM)
08-01-2019,04:00,21.256,R,ugm-3 (Ref.eq),1.31090,R,ugm-3,5.49476,R,ugm-3,7.50478,R,ugm-3,6.000,R,ugm-3 (BAM)
08-01-2019,05:00,24.155,R,ugm-3 (Ref.eq),0.95245,R,ugm-3,7.41177,R,ugm-3,8.87217,R,ugm-3,6.000,R,ugm-3 (BAM)
08-01-2019,06:00,35.749,R,ugm-3 (Ref.eq),1.19824,R,ugm-3,6.55789,R,ugm-3,8.39518,R,ugm-3,10.000,R,ugm-3 (BAM)
08-01-2019,07:00,34.783,R,ugm-3 (Ref.eq),0.89100,R,ugm-3,10.08178,R,ugm-3,11.44797,R,ugm-3,10.000,R,ugm-3 (BAM)
08-01-2019,08:00,34.783,R,ugm-3 (Ref.eq),1.22897,R,ugm-3,15.43066,R,ugm-3,17.31505,R,ugm-3,10.000,R,ugm-3 (BAM)
08-01-2019,09:00,38.648,R,ugm-3 (Ref.eq),1.38259,R,ugm-3,31.69926,R,ugm-3,33.81920,R,ugm-3,16.000,R,ugm-3 (BAM)
08-01-2019,10:00,36.716,R,ugm-3 (Ref.eq),1.93563,R,ugm-3,26.65370,R,ugm-3,29.62161,R,ugm-3,12.000,R,ugm-3 (BAM)
08-01-2019,11:00,35.749,R,ugm-3 (Ref.eq),1.87418,R,ugm-3,13.86895,R,ugm-3,16.74265,R,ugm-3,12.000,R,ugm-3 (BAM)
08-01-2019,12:00,33.817,R,ugm-3 (Ref.eq),1.90490,R,ugm-3,12.15235,R,ugm-3,15.07316,R,ugm-3,7.000,R,ugm-3 (BAM)
08-01-2019,13:00,28.020,R,ugm-3 (Ref.eq),1.59766,R,ugm-3,9.66605,R,ugm-3,12.11576,R,ugm-3,5.000,R,ugm-3 (BAM)
08-01-2019,14:00,28.986,R,ugm-3 (Ref.eq),1.38259,R,ugm-3,8.08783,R,ugm-3,10.20777,R,ugm-3,7.000,R,ugm-3 (BAM)
08-01-2019,15:00,33.817,R,ugm-3 (Ref.eq),1.13680,R,ugm-3,9.94340,R,ugm-3,11.68647,R,ugm-3,8.000,R,ugm-3 (BAM)
08-01-2019,16:00,30.918,R,ugm-3 (Ref.eq),1.41331,R,ugm-3,17.38989,R,ugm-3,19.55694,R,ugm-3,9.000,R,ugm-3 (BAM)
08-01-2019,17:00,24.155,R,ugm-3 (Ref.eq),1.13680,R,ugm-3,29.21415,R,ugm-3,30.95721,R,ugm-3,8.000,R,ugm-3 (BAM)
08-01-2019,18:00,28.020,R,ugm-3 (Ref.eq),5.25384,R,ugm-3,50.28115,R,ugm-3,58.33693,R,ugm-3,10.000,R,ugm-3 (BAM)
08-01-2019,19:00,26.087,R,ugm-3 (Ref.eq),7.12802,R,ugm-3,52.36824,R,ugm-3,63.29771,R,ugm-3,7.000,R,ugm-3 (BAM)
08-01-2019,20:00,28.020,R,ugm-3 (Ref.eq),12.41258,R,ugm-3,56.33342,R,ugm-3,75.36578,R,ugm-3,14.000,R,ugm-3 (BAM)
08-01-2019,21:00,28.020,R,ugm-3 (Ref.eq),37.23774,R,ugm-3,71.35865,R,ugm-3,128.45572,R,ugm-3,13.000,R,ugm-3 (BAM)
08-01-2019,22:00,28.986,R,ugm-3 (Ref.eq),39.05047,R,ugm-3,97.77148,R,ugm-3,157.64804,R,ugm-3,18.000,R,ugm-3 (BAM)
08-01-2019,23:00,18.358,R,ugm-3 (Ref.eq),26.97586,R,ugm-3,79.36594,R,ugm-3,120.72835,R,ugm-3,11.000,R,ugm-3 (BAM)
08-01-2019,24:00,21.256,R,ugm-3 (Ref.eq),12.50475,R,ugm-3,55.57199,R,ugm-3,74.74568,R,ugm-3,8.000,R,ugm-3 (BAM)
09-01-2019,01:00,16.425,R,ugm-3 (Ref.eq),3.89098,R,ugm-3,36.65351,R,ugm-3,42.61959,R,ugm-3,8.000,R,ugm-3 (BAM)
09-01-2019,02:00,17.392,R,ugm-3 (Ref.eq),1.26969,R,ugm-3,19.36297,R,ugm-3,21.30979,R,ugm-3,7.000,R,ugm-3 (BAM)
09-01-2019,03:00,11.594,R,ugm-3 (Ref.eq),0.98298,R,ugm-3,13.66408,R,ugm-3,15.17130,R,ugm-3,4.000,R,ugm-3 (BAM)
09-01-2019,04:00,11.594,R,ugm-3 (Ref.eq),1.22873,R,ugm-3,10.56789,R,ugm-3,12.45192,R,ugm-3,5.000,R,ugm-3 (BAM)
09-01-2019,05:00,7.730,R,ugm-3 (Ref.eq),0.79867,R,ugm-3,9.70063,R,ugm-3,10.92525,R,ugm-3,6.000,R,ugm-3 (BAM)
09-01-2019,06:00,8.696,R,ugm-3 (Ref.eq),1.16729,R,ugm-3,14.86044,R,ugm-3,16.65027,R,ugm-3,4.000,R,ugm-3 (BAM)
09-01-2019,07:00,10.628,R,ugm-3 (Ref.eq),4.30055,R,ugm-3,29.04416,R,ugm-3,35.63825,R,ugm-3,1.000,R,ugm-3 (BAM)
09-01-2019,08:00,8.696,R,ugm-3 (Ref.eq),2.39602,R,ugm-3,28.00459,R,ugm-3,31.67844,R,ugm-3,3.000,R,ugm-3 (BAM)
09-01-2019,09:00,8.696,R,ugm-3 (Ref.eq),8.81613,R,ugm-3,37.91187,R,ugm-3,51.42976,R,ugm-3,5.000,R,ugm-3 (BAM)
09-01-2019,10:00,14.493,R,ugm-3 (Ref.eq),16.34210,R,ugm-3,45.12166,R,ugm-3,70.17920,R,ugm-3,6.000,R,ugm-3 (BAM)
09-01-2019,11:00,10.628,R,ugm-3 (Ref.eq),7.24950,R,ugm-3,36.21108,R,ugm-3,47.32683,R,ugm-3,5.000,R,ugm-3 (BAM)
09-01-2019,12:00,10.628,R,ugm-3 (Ref.eq),3.47116,R,ugm-3,23.11189,R,ugm-3,28.43426,R,ugm-3,3.000,R,ugm-3 (BAM)
09-01-2019,13:00,14.493,R,ugm-3 (Ref.eq),2.61105,R,ugm-3,16.36797,R,ugm-3,20.37153,R,ugm-3,1.000,R,ugm-3 (BAM)
09-01-2019,14:00,7.730,R,ugm-3 (Ref.eq),2.18100,R,ugm-3,13.01987,R,ugm-3,16.36401,R,ugm-3,1.000,R,ugm-3 (BAM)
09-01-2019,15:00,14.493,R,ugm-3 (Ref.eq),1.84309,R,ugm-3,12.82235,R,ugm-3,15.64839,R,ugm-3,1.000,R,ugm-3 (BAM)
09-01-2019,16:00,14.493,R,ugm-3 (Ref.eq),1.65878,R,ugm-3,19.16393,R,ugm-3,21.70737,R,ugm-3,0.000,R,ugm-3 (BAM)
09-01-2019,17:00,14.493,R,ugm-3 (Ref.eq),3.31757,R,ugm-3,32.84139,R,ugm-3,37.92825,R,ugm-3,4.000,R,ugm-3 (BAM)
09-01-2019,18:00,19.324,R,ugm-3 (Ref.eq),7.95602,R,ugm-3,45.62363,R,ugm-3,57.82270,R,ugm-3,7.000,R,ugm-3 (BAM)
09-01-2019,19:00,33.817,R,ugm-3 (Ref.eq),40.36376,R,ugm-3,80.28108,R,ugm-3,142.17131,R,ugm-3,19.000,R,ugm-3 (BAM)